Cloud_Cover
100 100 100 100 100 100 100 100 100 100 100 100 100 100 100 100 100 100 100 100 100 100 100 100 100 100 100 100 100 100 100 100 100 100 100 100 100 100 100 100 100 100 100
100 100 100 100 100 100 100 100 100 100 100 100 100 100 100 100 100 100 100 100 100 100 100 100 100 100 100 100 100 100 100 100 100 100 100 100 100 100 100 100 100 100 100
100 100 100 100 100 100 100 100 100 100 100 100 100 100 100 100 100 100 100 100 100 100 100 100 100 100 100 100 100 100 100 100 100 100 100 100 100 100 100 100 100 100 100
100 100 100 100 100 100 100 100 100 100 100 100 100 100 100 100 100 100 100 100 100 100 100 100 100 100 100 100 100 100 100 100 100 100 100 100 100 100 100 100 100 100 100
100 100 100 100 100 100 100 100 100 100 100 100 100 100 100 100 100 100 100 100 100 100 100 100 100 100 100 100 100 100 100 100 100 100 100 100 100 100 100 100 100 100 100
100 100 100 100 100 100 100 100 100 100 100 100 100 100 100 100 100 100 100 100 100 100 100 100 100 100 100 100 100 100 100 100 100 100 100 100 100 100 100 100 100 100 100
100 100 100 100 100 100 100 100 100 100 100 100 100 100 100 100 100 100 100 100 100 100 100 100 100 100 100 100 100 100 100 100 100 100 100 100 100 100 100 100 100 100 100
80 100 100 100 100 100 100 100 100 100 100 100 100 100 100 100 100 100 100 100 100 100 100 100 100 100 100 100 100 100 100 100 100 100 100 100 100 100 100 100 100 100 100
7 99 100 100 100 100 95 90 100 100 100 100 100 100 100 100 100 100 100 100 100 100 100 100 100 100 100 100 100 100 100 100 100 100 100 100 100 100 100 100 100 100 100
2 34 100 100 100 100 100 100 100 100 100 100 100 100 100 100 100 100 100 100 100 100 100 100 100 100 100 100 100 100 100 100 100 100 100 100 100 100 100 100 100 96 100
0 4 64 100 100 100 100 100 100 100 100 100 100 100 100 100 100 100 100 100 100 100 100 100 100 100 100 100 100 100 100 100 100 100 99 100 99 100 100 100 100 100 100
2 0 30 64 100 100 100 100 100 100 100 100 100 100 100 100 100 100 100 100 100 100 100 100 100 100 100 100 100 100 100 100 100 100 100 100 100 91 100 100 100 100 100
5 0 0 17 94 100 100 100 100 100 100 100 100 100 100 100 100 100 100 100 100 100 100 100 100 100 100 100 100 100 100 100 100 100 100 100 100 100 100 100 100 100 100
5 5 3 0 0 76 68 99 100 100 100 100 100 100 100 100 100 100 100 100 100 100 100 100 100 100 100 100 100 100 100 100 100 100 100 100 100 100 100 100 100 100 100
99 16 5 3 3 2 0 32 99 100 100 100 100 100 100 100 100 100 100 100 100 100 100 100 100 100 100 100 100 100 100 100 87 100 100 100 100 100 100 100 100 100 100
92 69 22 4 2 5 5 1 1 24 9 91 98 100 100 100 100 100 100 100 100 100 100 100 100 100 100 100 100 100 100 100 100 100 100 100 100 100 100 100 100 100 100
75 52 56 23 5 4 5 5 5 3 0 0 7 58 100 100 100 100 100 100 100 100 100 100 100 100 100 100 100 100 100 100 100 100 100 100 100 100 100 100 100 100 100
53 78 91 53 5 5 4 13 5 5 4 0 0 0 0 21 100 99 100 100 100 100 100 100 100 100 100 100 100 100 100 100 100 100 100 100 100 100 100 100 100 100 100
100 100 100 45 5 5 5 1 0 23 16 0 0 0 0 0 0 1 5 17 10 59 39 59 71 57 99 100 100 77 100 92 100 100 100 100 100 100 100 100 100 100 100
62 27 31 25 16 5 5 5 3 2 5 4 4 2 0 0 0 0 5 5 5 5 98 71 10 80 74 62 86 49 6 5 18 96 98 100 100 100 100 100 100 100 100
70 35 8 25 12 5 8 36 21 5 5 5 0 0 0 2 5 5 5 5 5 18 63 8 86 91 81 90 95 100 100 97 59 20 61 100 100 100 92 100 100 100 100
48 24 24 5 5 5 5 5 5 5 0 0 0 0 0 1 5 5 5 5 41 90 68 96 89 13 55 99 94 100 100 100 100 92 6 5 98 100 94 100 100 100 100
5 10 5 5 5 5 5 5 0 0 0 0 0 0 4 5 5 5 21 98 100 100 97 100 94 69 79 58 88 93 84 88 100 100 97 32 42 99 100 94 67 100 100
16 15 59 17 5 5 3 1 0 0 0 2 3 5 5 52 6 51 100 100 100 100 100 100 100 98 82 91 91 84 100 94 69 100 72 64 75 100 100 100 98 96 100
43 29 6 5 5 4 0 0 0 0 4 5 5 5 74 100 100 99 84 100 100 100 100 100 100 100 100 98 100 100 100 100 100 100 100 94 95 100 100 100 100 100 100
33 49 14 5 1 0 0 0 0 4 5 5 5 49 90 100 80 96 99 93 100 96 100 100 100 100 100 100 100 100 100 100 100 98 100 100 100 99 100 100 100 100 100